Precipitable_Water
1.16 1.14 1.12 1.09 1.09 1.10 1.11 1.11 1.11 1.11 1.10 1.08 1.05 1.01 0.94 0.91 0.80 0.77 0.78 0.85 0.88 0.99 1.07 1.00 1.08 1.13 1.11 1.04 0.99 0.91 0.79 0.71 0.64 0.56 0.53 0.53 0.55 0.55 0.49 0.42 0.40 0.42 0.43 0.44 0.45 0.46 0.45 0.45 0.46 0.47 0.46 0.44 0.44 0.44 0.45 0.47 0.48 0.49 0.50 0.50 0.50 0.50 0.51 0.53 0.54 0.55 0.57 0.59 0.56 0.55 0.56 0.57 0.57 0.57
1.14 1.13 1.11 1.10 1.07 1.10 1.09 1.09 1.12 1.10 1.08 1.06 1.04 1.02 1.02 0.99 0.86 0.84 0.78 0.81 0.92 0.95 1.04 1.07 1.02 1.06 1.03 1.01 0.94 0.88 0.78 0.73 0.65 0.56 0.52 0.52 0.53 0.52 0.45 0.39 0.37 0.39 0.40 0.42 0.44 0.44 0.43 0.43 0.43 0.43 0.42 0.42 0.44 0.46 0.50 0.53 0.55 0.57 0.59 0.60 0.60 0.61 0.62 0.63 0.63 0.63 0.64 0.64 0.61 0.59 0.59 0.60 0.60 0.60
1.13 1.09 1.07 1.10 1.08 1.09 1.07 1.08 1.10 1.10 1.08 1.07 1.06 1.04 1.04 1.01 0.97 0.92 0.89 0.78 0.91 0.98 0.95 1.03 1.05 1.00 0.96 0.92 0.87 0.83 0.79 0.73 0.66 0.57 0.52 0.51 0.52 0.50 0.43 0.37 0.36 0.37 0.38 0.40 0.41 0.41 0.41 0.41 0.42 0.41 0.41 0.44 0.47 0.51 0.56 0.59 0.61 0.63 0.64 0.64 0.64 0.65 0.65 0.65 0.65 0.65 0.66 0.65 0.62 0.61 0.61 0.61 0.62 0.62
1.12 1.10 1.08 1.09 1.08 1.08 1.06 1.05 1.07 1.08 1.10 1.10 1.07 1.05 1.03 1.02 1.02 1.00 0.93 0.84 0.85 0.95 0.97 1.00 0.97 0.93 0.89 0.89 0.83 0.81 0.78 0.74 0.65 0.56 0.52 0.52 0.52 0.49 0.43 0.37 0.36 0.36 0.37 0.37 0.38 0.39 0.40 0.40 0.40 0.41 0.44 0.48 0.51 0.55 0.58 0.61 0.63 0.64 0.65 0.65 0.65 0.66 0.67 0.67 0.66 0.67 0.68 0.67 0.66 0.64 0.65 0.65 0.65 0.65
1.13 1.11 1.09 1.08 1.08 1.10 1.04 1.04 1.07 1.08 1.08 1.08 1.06 1.06 1.04 1.00 1.01 0.99 0.94 0.86 0.84 0.89 0.94 0.92 0.87 0.89 0.89 0.84 0.85 0.80 0.76 0.70 0.62 0.56 0.52 0.53 0.51 0.48 0.43 0.38 0.36 0.36 0.36 0.36 0.37 0.37 0.39 0.39 0.41 0.44 0.48 0.51 0.54 0.57 0.59 0.61 0.63 0.64 0.65 0.66 0.66 0.67 0.67 0.67 0.67 0.66 0.68 0.68 0.68 0.67 0.67 0.67 0.66 0.65
1.13 1.12 1.08 1.07 1.09 1.10 1.06 1.06 1.07 1.08 1.06 1.05 1.03 1.03 1.02 1.00 0.99 1.04 0.96 0.90 0.87 0.83 0.84 0.83 0.86 0.85 0.89 0.80 0.84 0.76 0.71 0.66 0.61 0.52 0.50 0.53 0.54 0.49 0.43 0.39 0.36 0.35 0.34 0.34 0.35 0.36 0.39 0.41 0.43 0.47 0.50 0.53 0.55 0.58 0.59 0.60 0.61 0.63 0.64 0.65 0.65 0.66 0.66 0.66 0.66 0.66 0.66 0.68 0.71 0.71 0.69 0.69 0.68 0.66
1.15 1.12 1.09 1.08 1.10 1.10 1.06 1.05 1.07 1.08 1.06 1.07 1.04 1.03 1.05 1.01 1.01 1.02 1.02 0.93 0.87 0.86 0.83 0.85 0.82 0.82 0.83 0.80 0.77 0.78 0.75 0.70 0.61 0.50 0.46 0.49 0.53 0.52 0.46 0.39 0.36 0.34 0.33 0.33 0.35 0.37 0.41 0.44 0.47 0.49 0.52 0.54 0.57 0.58 0.60 0.61 0.61 0.62 0.63 0.65 0.66 0.67 0.66 0.67 0.67 0.68 0.68 0.68 0.71 0.73 0.72 0.70 0.69 0.66
1.15 1.13 1.10 1.09 1.10 1.10 1.05 1.05 1.04 1.06 1.06 1.05 1.05 1.04 1.05 1.03 1.01 1.03 1.03 1.02 0.94 0.92 0.85 0.83 0.81 0.83 0.82 0.82 0.81 0.80 0.77 0.70 0.62 0.52 0.47 0.50 0.51 0.52 0.49 0.43 0.37 0.34 0.34 0.35 0.37 0.40 0.44 0.48 0.50 0.51 0.52 0.54 0.56 0.58 0.60 0.62 0.63 0.64 0.65 0.66 0.67 0.68 0.68 0.68 0.68 0.69 0.69 0.69 0.69 0.71 0.72 0.70 0.69 0.68
1.17 1.14 1.10 1.10 1.10 1.10 1.06 1.06 1.04 1.05 1.03 1.05 1.07 1.05 1.05 1.02 1.03 1.04 1.03 1.03 1.00 0.94 0.88 0.87 0.87 0.88 0.86 0.85 0.81 0.79 0.72 0.68 0.64 0.60 0.52 0.48 0.49 0.50 0.51 0.47 0.43 0.39 0.37 0.37 0.39 0.44 0.48 0.51 0.52 0.52 0.52 0.54 0.56 0.58 0.60 0.63 0.65 0.66 0.67 0.68 0.68 0.69 0.70 0.70 0.70 0.69 0.70 0.70 0.69 0.70 0.72 0.71 0.68 0.67
1.16 1.12 1.10 1.11 1.11 1.10 1.07 1.06 1.07 1.06 1.04 1.05 1.05 1.05 1.04 1.03 1.04 1.05 1.06 1.05 1.02 0.98 0.95 0.93 0.88 0.87 0.83 0.81 0.77 0.76 0.73 0.66 0.60 0.55 0.52 0.50 0.49 0.49 0.48 0.46 0.44 0.42 0.41 0.41 0.44 0.47 0.51 0.53 0.54 0.54 0.55 0.55 0.56 0.58 0.61 0.64 0.66 0.68 0.69 0.70 0.70 0.70 0.70 0.70 0.71 0.71 0.71 0.71 0.71 0.71 0.72 0.72 0.71 0.68
1.13 1.12 1.13 1.12 1.13 1.11 1.10 1.08 1.06 1.06 1.09 1.09 1.05 1.04 1.02 1.02 1.01 1.03 1.06 1.07 1.05 1.02 0.97 0.94 0.89 0.82 0.81 0.79 0.74 0.75 0.73 0.68 0.59 0.50 0.45 0.41 0.45 0.47 0.46 0.43 0.46 0.48 0.47 0.48 0.49 0.50 0.52 0.54 0.55 0.56 0.56 0.57 0.59 0.62 0.65 0.67 0.68 0.69 0.70 0.70 0.71 0.71 0.71 0.71 0.71 0.72 0.72 0.73 0.73 0.73 0.72 0.72 0.73 0.71
1.14 1.19 1.17 1.16 1.15 1.14 1.13 1.12 1.11 1.09 1.05 1.06 1.03 1.04 1.03 1.02 0.99 0.99 1.03 1.05 1.04 1.02 0.97 0.92 0.85 0.79 0.76 0.77 0.76 0.74 0.69 0.61 0.55 0.51 0.45 0.40 0.41 0.44 0.48 0.49 0.49 0.52 0.52 0.52 0.54 0.56 0.58 0.59 0.60 0.61 0.62 0.62 0.63 0.65 0.67 0.69 0.70 0.71 0.72 0.73 0.74 0.74 0.74 0.74 0.74 0.74 0.74 0.74 0.74 0.74 0.74 0.73 0.73 0.74
1.11 1.12 1.12 1.12 1.12 1.13 1.13 1.13 1.11 1.11 1.16 1.12 1.03 1.02 1.03 1.01 0.98 0.98 0.98 0.99 0.99 0.97 0.93 0.89 0.85 0.78 0.75 0.74 0.71 0.67 0.62 0.57 0.53 0.53 0.52 0.46 0.47 0.47 0.47 0.50 0.55 0.56 0.55 0.57 0.59 0.61 0.65 0.65 0.67 0.67 0.67 0.68 0.70 0.71 0.72 0.72 0.73 0.74 0.75 0.76 0.76 0.77 0.77 0.78 0.77 0.77 0.77 0.77 0.78 0.77 0.77 0.76 0.76 0.76
1.06 1.07 1.08 1.09 1.08 1.07 1.06 1.06 1.06 1.07 1.08 1.11 1.12 1.10 1.06 1.02 0.99 0.98 0.95 0.93 0.93 0.93 0.90 0.88 0.86 0.80 0.77 0.76 0.74 0.69 0.67 0.64 0.61 0.58 0.57 0.53 0.53 0.52 0.52 0.55 0.59 0.64 0.63 0.61 0.60 0.64 0.70 0.69 0.68 0.69 0.69 0.72 0.75 0.75 0.76 0.77 0.79 0.79 0.80 0.80 0.80 0.80 0.80 0.79 0.79 0.79 0.80 0.81 0.81 0.81 0.81 0.80 0.79 0.78
0.99 1.02 1.04 1.03 1.02 1.00 0.99 0.98 1.00 1.02 1.04 1.07 1.08 1.09 1.10 1.11 1.09 1.04 0.99 0.95 0.94 0.92 0.90 0.92 0.87 0.90 0.88 0.86 0.80 0.73 0.69 0.66 0.63 0.61 0.60 0.59 0.58 0.54 0.50 0.49 0.60 0.70 0.67 0.64 0.62 0.63 0.71 0.72 0.69 0.72 0.73 0.77 0.80 0.82 0.84 0.86 0.87 0.87 0.86 0.85 0.85 0.85 0.85 0.85 0.85 0.85 0.84 0.84 0.84 0.83 0.83 0.82 0.81 0.79
0.98 0.98 0.97 0.96 0.95 0.92 0.92 0.93 0.94 0.96 0.99 1.02 1.04 1.05 1.05 1.08 1.12 1.15 1.11 1.03 0.98 0.96 0.92 0.94 0.94 0.96 0.96 0.93 0.84 0.75 0.71 0.69 0.67 0.66 0.64 0.62 0.60 0.59 0.58 0.58 0.57 0.68 0.76 0.70 0.67 0.67 0.75 0.78 0.77 0.77 0.81 0.84 0.87 0.89 0.91 0.91 0.91 0.91 0.90 0.90 0.89 0.89 0.89 0.88 0.89 0.88 0.88 0.86 0.87 0.88 0.88 0.86 0.83 0.79
0.96 0.94 0.91 0.88 0.87 0.86 0.86 0.87 0.88 0.90 0.91 0.93 0.96 0.98 1.00 1.04 1.08 1.11 1.12 1.11 1.07 1.05 1.01 1.00 0.94 0.95 0.90 0.83 0.80 0.79 0.75 0.74 0.68 0.67 0.65 0.65 0.65 0.65 0.63 0.63 0.65 0.69 0.77 0.74 0.71 0.70 0.78 0.83 0.82 0.81 0.86 0.90 0.91 0.91 0.92 0.91 0.91 0.90 0.90 0.90 0.91 0.91 0.91 0.91 0.91 0.90 0.90 0.92 0.93 0.91 0.90 0.87 0.86 0.85
0.94 0.92 0.88 0.84 0.81 0.80 0.81 0.82 0.83 0.84 0.84 0.85 0.87 0.89 0.92 0.95 1.01 1.05 1.06 1.06 1.06 1.05 1.02 0.97 0.89 0.90 0.87 0.83 0.85 0.84 0.83 0.74 0.70 0.69 0.67 0.70 0.69 0.70 0.70 0.76 0.78 0.84 0.88 0.82 0.80 0.75 0.81 0.87 0.85 0.83 0.88 0.92 0.92 0.92 0.92 0.91 0.90 0.89 0.89 0.89 0.89 0.88 0.88 0.88 0.88 0.88 0.87 0.87 0.86 0.87 0.88 0.86 0.86 0.83
0.95 0.93 0.90 0.89 0.85 0.83 0.82 0.84 0.84 0.81 0.79 0.77 0.77 0.78 0.81 0.86 0.91 0.95 0.96 0.98 0.98 0.97 0.95 0.91 0.90 0.91 0.94 0.94 0.95 0.95 0.96 0.93 0.91 0.90 0.86 0.84 0.83 0.84 0.86 0.86 0.88 0.89 0.93 0.89 0.83 0.71 0.79 0.85 0.80 0.79 0.82 0.85 0.86 0.90 0.90 0.90 0.90 0.90 0.90 0.90 0.89 0.89 0.89 0.89 0.89 0.89 0.89 0.89 0.89 0.89 0.88 0.86 0.83 0.80
0.96 0.95 0.94 0.91 0.88 0.86 0.84 0.86 0.87 0.85 0.82 0.78 0.77 0.76 0.78 0.83 0.88 0.91 0.95 0.98 0.99 0.99 0.97 0.96 0.95 0.96 0.97 0.99 0.99 1.00 1.01 1.00 1.00 0.99 0.97 0.93 0.88 0.83 0.78 0.75 0.80 0.80 0.89 0.90 0.82 0.75 0.75 0.82 0.76 0.76 0.83 0.85 0.84 0.89 0.91 0.92 0.92 0.92 0.92 0.91 0.91 0.91 0.90 0.89 0.88 0.87 0.86 0.85 0.84 0.81 0.78 0.75 0.73 0.71
0.99 0.98 0.97 0.94 0.92 0.90 0.88 0.90 0.92 0.92 0.90 0.87 0.86 0.85 0.84 0.86 0.88 0.91 0.95 0.97 0.97 0.97 0.97 0.96 0.96 0.96 0.96 0.97 0.98 0.97 0.97 0.96 0.95 0.91 0.84 0.80 0.83 0.77 0.73 0.75 0.76 0.78 0.84 0.87 0.85 0.77 0.71 0.77 0.77 0.77 0.82 0.83 0.82 0.83 0.85 0.86 0.85 0.84 0.83 0.82 0.80 0.78 0.76 0.75 0.73 0.72 0.70 0.69 0.67 0.66 0.64 0.63 0.62 0.61
1.01 1.00 0.98 0.96 0.93 0.90 0.88 0.89 0.91 0.94 0.94 0.90 0.90 0.89 0.90 0.92 0.94 0.95 0.98 1.02 1.02 1.01 0.99 0.97 0.96 0.96 0.96 0.97 0.97 0.95 0.94 0.93 0.92 0.85 0.77 0.82 0.81 0.75 0.74 0.70 0.72 0.73 0.75 0.79 0.84 0.74 0.73 0.79 0.80 0.75 0.77 0.75 0.75 0.73 0.72 0.71 0.70 0.67 0.64 0.63 0.61 0.60 0.58 0.57 0.57 0.56 0.56 0.57 0.57 0.58 0.57 0.57 0.56 0.56
0.98 0.97 0.96 0.95 0.94 0.90 0.89 0.89 0.88 0.89 0.92 0.91 0.90 0.89 0.88 0.86 0.87 0.90 0.94 0.95 0.96 0.97 0.97 0.96 0.96 0.96 0.95 0.93 0.91 0.91 0.89 0.87 0.85 0.83 0.79 0.78 0.72 0.67 0.66 0.66 0.65 0.61 0.67 0.79 0.84 0.67 0.67 0.66 0.68 0.64 0.55 0.48 0.54 0.58 0.58 0.57 0.57 0.55 0.53 0.52 0.51 0.51 0.50 0.51 0.51 0.52 0.53 0.53 0.54 0.54 0.54 0.54 0.54 0.55
0.94 0.94 0.94 0.94 0.92 0.89 0.89 0.89 0.86 0.84 0.84 0.83 0.82 0.82 0.82 0.82 0.82 0.87 0.88 0.89 0.88 0.87 0.86 0.84 0.83 0.83 0.83 0.82 0.81 0.79 0.78 0.77 0.76 0.75 0.74 0.73 0.70 0.66 0.63 0.61 0.59 0.52 0.54 0.66 0.70 0.59 0.59 0.58 0.53 0.57 0.51 0.40 0.36 0.47 0.51 0.49 0.49 0.49 0.49 0.49 0.48 0.50 0.51 0.51 0.51 0.52 0.52 0.52 0.52 0.52 0.52 0.52 0.53 0.53
0.89 0.90 0.91 0.93 0.93 0.91 0.88 0.86 0.85 0.83 0.82 0.82 0.80 0.78 0.75 0.76 0.79 0.79 0.76 0.76 0.75 0.74 0.75 0.75 0.74 0.73 0.72 0.71 0.71 0.70 0.69 0.69 0.70 0.70 0.70 0.69 0.68 0.63 0.57 0.54 0.51 0.48 0.52 0.59 0.61 0.54 0.48 0.50 0.45 0.46 0.43 0.42 0.41 0.38 0.42 0.43 0.46 0.46 0.48 0.48 0.47 0.49 0.49 0.49 0.50 0.51 0.52 0.52 0.52 0.53 0.53 0.53 0.54 0.55
0.88 0.90 0.91 0.91 0.91 0.90 0.88 0.84 0.85 0.85 0.83 0.81 0.79 0.77 0.77 0.76 0.75 0.74 0.73 0.73 0.72 0.70 0.69 0.66 0.64 0.64 0.64 0.64 0.65 0.67 0.67 0.67 0.66 0.65 0.63 0.61 0.58 0.56 0.54 0.51 0.46 0.43 0.45 0.54 0.53 0.50 0.45 0.42 0.44 0.40 0.39 0.37 0.36 0.37 0.34 0.36 0.42 0.45 0.47 0.47 0.47 0.47 0.48 0.47 0.48 0.49 0.51 0.53 0.54 0.54 0.54 0.54 0.54 0.54
0.90 0.92 0.91 0.90 0.89 0.89 0.88 0.85 0.83 0.83 0.84 0.83 0.82 0.81 0.79 0.78 0.76 0.74 0.71 0.70 0.68 0.66 0.65 0.65 0.64 0.66 0.67 0.67 0.66 0.64 0.62 0.62 0.61 0.58 0.56 0.53 0.52 0.51 0.51 0.51 0.51 0.48 0.49 0.48 0.49 0.47 0.45 0.42 0.46 0.42 0.38 0.39 0.36 0.36 0.36 0.34 0.36 0.43 0.43 0.44 0.45 0.47 0.49 0.49 0.49 0.50 0.52 0.53 0.55 0.55 0.54 0.54 0.53 0.53
0.94 0.93 0.91 0.90 0.89 0.89 0.88 0.86 0.83 0.82 0.81 0.79 0.78 0.77 0.75 0.73 0.73 0.72 0.71 0.70 0.68 0.68 0.67 0.67 0.67 0.65 0.65 0.62 0.60 0.58 0.57 0.55 0.53 0.51 0.51 0.49 0.49 0.47 0.46 0.45 0.46 0.47 0.47 0.48 0.47 0.46 0.45 0.43 0.43 0.45 0.44 0.40 0.36 0.34 0.32 0.37 0.38 0.39 0.37 0.41 0.44 0.46 0.49 0.50 0.50 0.51 0.53 0.55 0.55 0.54 0.52 0.51 0.52 0.52
0.94 0.93 0.92 0.91 0.90 0.88 0.84 0.82 0.80 0.78 0.76 0.75 0.74 0.73 0.72 0.70 0.69 0.67 0.66 0.66 0.67 0.65 0.63 0.61 0.60 0.59 0.58 0.56 0.55 0.55 0.53 0.51 0.49 0.46 0.46 0.46 0.45 0.44 0.44 0.44 0.44 0.44 0.45 0.46 0.46 0.47 0.46 0.44 0.43 0.45 0.45 0.44 0.39 0.37 0.36 0.33 0.35 0.37 0.39 0.37 0.37 0.42 0.45 0.49 0.50 0.50 0.52 0.53 0.53 0.52 0.48 0.48 0.50 0.53
0.90 0.89 0.89 0.88 0.87 0.86 0.83 0.81 0.78 0.75 0.73 0.72 0.71 0.71 0.71 0.71 0.70 0.69 0.68 0.67 0.64 0.62 0.61 0.58 0.55 0.54 0.54 0.52 0.52 0.51 0.49 0.45 0.43 0.43 0.41 0.41 0.40 0.40 0.38 0.37 0.38 0.41 0.42 0.43 0.44 0.45 0.46 0.46 0.45 0.44 0.42 0.41 0.40 0.37 0.37 0.35 0.34 0.38 0.40 0.39 0.39 0.42 0.45 0.47 0.49 0.51 0.52 0.51 0.52 0.50 0.52 0.54 0.55 0.57
0.88 0.88 0.88 0.86 0.86 0.85 0.85 0.83 0.81 0.79 0.77 0.75 0.72 0.70 0.69 0.69 0.68 0.66 0.63 0.59 0.56 0.53 0.51 0.50 0.49 0.49 0.49 0.50 0.48 0.45 0.43 0.42 0.43 0.43 0.41 0.38 0.36 0.36 0.36 0.33 0.32 0.34 0.38 0.42 0.43 0.44 0.44 0.44 0.44 0.44 0.39 0.39 0.39 0.38 0.38 0.38 0.36 0.36 0.39 0.40 0.40 0.34 0.41 0.45 0.48 0.50 0.51 0.50 0.52 0.52 0.52 0.54 0.56 0.60
0.87 0.86 0.85 0.84 0.83 0.83 0.81 0.79 0.78 0.77 0.77 0.76 0.74 0.71 0.69 0.67 0.65 0.63 0.61 0.58 0.55 0.52 0.51 0.49 0.48 0.46 0.46 0.43 0.44 0.44 0.42 0.41 0.40 0.40 0.37 0.34 0.33 0.34 0.33 0.30 0.29 0.31 0.34 0.37 0.39 0.42 0.43 0.43 0.41 0.41 0.40 0.38 0.35 0.37 0.38 0.38 0.37 0.37 0.37 0.40 0.40 0.42 0.45 0.45 0.47 0.50 0.53 0.54 0.53 0.54 0.57 0.58 0.59 0.61
0.84 0.83 0.82 0.80 0.79 0.77 0.74 0.73 0.72 0.72 0.71 0.69 0.68 0.66 0.64 0.62 0.61 0.58 0.56 0.53 0.52 0.51 0.49 0.46 0.45 0.44 0.43 0.42 0.41 0.39 0.37 0.36 0.36 0.37 0.35 0.34 0.32 0.33 0.33 0.29 0.29 0.29 0.28 0.30 0.33 0.37 0.39 0.41 0.42 0.40 0.40 0.40 0.40 0.40 0.37 0.35 0.37 0.40 0.38 0.39 0.41 0.41 0.43 0.48 0.50 0.52 0.56 0.55 0.54 0.56 0.56 0.59 0.61 0.60
0.79 0.77 0.76 0.77 0.76 0.74 0.72 0.70 0.69 0.67 0.65 0.63 0.61 0.60 0.60 0.58 0.56 0.54 0.52 0.50 0.49 0.48 0.45 0.44 0.42 0.40 0.38 0.36 0.36 0.35 0.34 0.34 0.34 0.35 0.34 0.32 0.33 0.30 0.30 0.29 0.30 0.32 0.31 0.31 0.32 0.34 0.36 0.38 0.40 0.41 0.42 0.42 0.45 0.44 0.42 0.39 0.39 0.41 0.42 0.42 0.42 0.41 0.44 0.47 0.50 0.55 0.56 0.56 0.54 0.52 0.53 0.56 0.60 0.61
0.74 0.72 0.71 0.71 0.71 0.70 0.68 0.66 0.65 0.63 0.60 0.58 0.57 0.55 0.54 0.53 0.51 0.49 0.47 0.45 0.45 0.44 0.42 0.41 0.39 0.37 0.35 0.34 0.34 0.32 0.32 0.31 0.32 0.33 0.34 0.34 0.33 0.31 0.31 0.30 0.30 0.30 0.31 0.31 0.32 0.34 0.36 0.36 0.37 0.36 0.37 0.38 0.38 0.42 0.48 0.47 0.42 0.42 0.43 0.44 0.45 0.45 0.46 0.49 0.50 0.52 0.54 0.54 0.54 0.50 0.50 0.52 0.54 0.59
0.70 0.70 0.68 0.67 0.66 0.65 0.63 0.61 0.60 0.58 0.56 0.55 0.53 0.52 0.49 0.47 0.47 0.46 0.44 0.45 0.43 0.41 0.38 0.36 0.35 0.34 0.33 0.33 0.32 0.32 0.32 0.31 0.31 0.31 0.31 0.31 0.31 0.31 0.31 0.31 0.30 0.31 0.32 0.32 0.33 0.35 0.37 0.36 0.36 0.33 0.31 0.31 0.31 0.31 0.36 0.47 0.48 0.45 0.42 0.43 0.47 0.47 0.48 0.50 0.51 0.52 0.52 0.51 0.53 0.51 0.47 0.47 0.49 0.54
0.65 0.65 0.65 0.63 0.62 0.60 0.57 0.56 0.55 0.54 0.53 0.51 0.49 0.47 0.46 0.44 0.44 0.43 0.42 0.42 0.39 0.37 0.36 0.35 0.34 0.33 0.33 0.32 0.32 0.31 0.31 0.30 0.29 0.30 0.30 0.30 0.30 0.30 0.29 0.30 0.31 0.32 0.31 0.33 0.35 0.35 0.36 0.35 0.35 0.34 0.31 0.30 0.29 0.30 0.34 0.43 0.47 0.52 0.49 0.44 0.44 0.46 0.46 0.47 0.47 0.47 0.50 0.51 0.50 0.50 0.49 0.49 0.49 0.52
0.60 0.60 0.58 0.58 0.57 0.55 0.54 0.53 0.51 0.50 0.49 0.48 0.47 0.45 0.44 0.43 0.42 0.41 0.41 0.39 0.37 0.36 0.35 0.34 0.33 0.33 0.32 0.32 0.30 0.30 0.30 0.31 0.30 0.29 0.29 0.29 0.28 0.28 0.29 0.29 0.30 0.31 0.32 0.34 0.35 0.35 0.37 0.35 0.35 0.35 0.33 0.31 0.30 0.31 0.32 0.38 0.41 0.46 0.52 0.49 0.44 0.45 0.47 0.46 0.44 0.44 0.46 0.50 0.49 0.50 0.52 0.49 0.49 0.51
0.55 0.54 0.52 0.51 0.50 0.50 0.49 0.49 0.48 0.47 0.46 0.45 0.44 0.42 0.41 0.41 0.40 0.39 0.38 0.37 0.36 0.35 0.34 0.33 0.32 0.32 0.31 0.31 0.31 0.30 0.29 0.29 0.28 0.28 0.29 0.29 0.29 0.28 0.29 0.29 0.29 0.31 0.31 0.31 0.34 0.35 0.36 0.35 0.36 0.36 0.36 0.34 0.32 0.34 0.36 0.36 0.36 0.43 0.49 0.52 0.50 0.47 0.48 0.47 0.46 0.47 0.47 0.46 0.49 0.51 0.52 0.55 0.55 0.55
0.50 0.49 0.48 0.47 0.47 0.48 0.47 0.47 0.46 0.45 0.44 0.43 0.42 0.41 0.40 0.38 0.38 0.37 0.36 0.36 0.34 0.34 0.33 0.32 0.32 0.32 0.31 0.31 0.31 0.31 0.30 0.29 0.29 0.29 0.29 0.29 0.30 0.30 0.30 0.30 0.30 0.30 0.30 0.31 0.31 0.33 0.35 0.36 0.37 0.38 0.38 0.40 0.42 0.44 0.43 0.43 0.44 0.47 0.47 0.51 0.53 0.51 0.50 0.49 0.46 0.45 0.45 0.48 0.49 0.47 0.47 0.49 0.47 0.50
0.47 0.46 0.46 0.46 0.46 0.45 0.44 0.44 0.44 0.43 0.41 0.41 0.40 0.39 0.39 0.38 0.37 0.36 0.35 0.34 0.33 0.32 0.31 0.31 0.31 0.31 0.31 0.31 0.31 0.30 0.28 0.29 0.29 0.29 0.29 0.30 0.30 0.30 0.30 0.31 0.31 0.32 0.31 0.31 0.32 0.33 0.35 0.38 0.41 0.44 0.44 0.45 0.46 0.46 0.42 0.38 0.36 0.40 0.43 0.47 0.52 0.53 0.53 0.52 0.49 0.47 0.45 0.47 0.47 0.45 0.44 0.43 0.43 0.43
0.47 0.46 0.45 0.45 0.44 0.44 0.43 0.42 0.41 0.40 0.39 0.39 0.39 0.38 0.37 0.36 0.35 0.35 0.34 0.33 0.33 0.32 0.32 0.31 0.31 0.31 0.31 0.31 0.30 0.30 0.28 0.28 0.28 0.28 0.29 0.29 0.29 0.29 0.31 0.32 0.31 0.32 0.32 0.31 0.33 0.35 0.39 0.42 0.43 0.44 0.45 0.45 0.44 0.39 0.35 0.37 0.37 0.41 0.45 0.47 0.50 0.53 0.53 0.52 0.51 0.50 0.49 0.47 0.45 0.43 0.43 0.42 0.42 0.40
0.47 0.46 0.44 0.44 0.43 0.43 0.42 0.41 0.40 0.40 0.39 0.39 0.38 0.37 0.35 0.34 0.34 0.33 0.33 0.32 0.32 0.31 0.31 0.30 0.30 0.30 0.30 0.30 0.30 0.30 0.29 0.28 0.28 0.28 0.28 0.29 0.29 0.29 0.30 0.31 0.32 0.33 0.33 0.33 0.35 0.37 0.38 0.40 0.42 0.43 0.44 0.44 0.43 0.42 0.38 0.40 0.41 0.43 0.45 0.46 0.48 0.50 0.51 0.51 0.50 0.50 0.50 0.50 0.49 0.47 0.46 0.42 0.39 0.37
0.45 0.44 0.44 0.44 0.43 0.42 0.42 0.41 0.41 0.40 0.39 0.38 0.37 0.36 0.34 0.33 0.32 0.32 0.32 0.31 0.31 0.30 0.30 0.30 0.30 0.29 0.30 0.30 0.30 0.30 0.29 0.28 0.28 0.28 0.28 0.29 0.30 0.30 0.31 0.31 0.32 0.32 0.33 0.33 0.34 0.35 0.36 0.38 0.40 0.43 0.42 0.41 0.43 0.42 0.41 0.42 0.42 0.44 0.45 0.47 0.49 0.49 0.47 0.49 0.50 0.52 0.52 0.52 0.51 0.50 0.49 0.48 0.47 0.46
0.44 0.43 0.43 0.43 0.42 0.42 0.42 0.41 0.39 0.38 0.37 0.36 0.35 0.34 0.33 0.32 0.31 0.31 0.31 0.31 0.30 0.30 0.29 0.29 0.29 0.30 0.30 0.30 0.29 0.28 0.28 0.29 0.29 0.29 0.30 0.30 0.31 0.31 0.31 0.31 0.31 0.32 0.32 0.33 0.32 0.32 0.34 0.36 0.39 0.42 0.41 0.42 0.44 0.43 0.44 0.43 0.43 0.43 0.44 0.45 0.45 0.46 0.47 0.47 0.46 0.45 0.45 0.47 0.52 0.52 0.51 0.50 0.48 0.47
Wind_Speed
16 16 16 15 15 15 15 15 15 15 15 15 14 14 14 13 13 12 13 13 13 13 13 13 13 13 12 12 11 11 10 10 10 10 10 9 8 8 8 8 8 8 8 8 7 7 7 7 7 7 7 6 6 6 6 6 6 7 7 8 8 9 9 10 10 11 12 12 12 13 13 13 14 14
16 16 16 16 16 16 16 16 16 16 15 15 15 15 15 14 14 13 13 13 13 14 14 14 13 13 13 13 12 11 11 11 11 11 11 10 10 9 9 9 9 9 9 9 9 9 8 8 8 8 8 8 8 8 8 8 8 8 9 9 10 10 11 11 12 12 13 13 13 14 14 14 15 15
16 16 16 16 16 16 16 16 16 16 16 16 16 15 15 15 15 14 14 13 13 13 14 14 14 13 13 13 12 12 12 12 12 12 12 11 11 10 10 11 10 10 10 10 10 10 10 10 10 9 9 9 9 9 9 10 10 10 11 11 11 12 12 13 13 14 14 14 15 15 16 16 16 17
17 16 16 16 16 16 16 16 16 16 16 16 16 16 16 16 15 15 14 13 13 13 14 14 14 13 13 13 13 13 13 13 13 13 13 12 12 12 12 12 12 12 12 12 12 12 11 11 11 11 11 11 11 11 11 12 12 12 13 13 13 14 14 15 15 16 16 16 17 17 18 18 19 19
17 17 17 16 16 16 17 17 16 16 16 16 16 16 16 16 16 16 15 14 13 13 13 14 14 13 13 13 13 13 13 13 14 14 14 13 13 13 13 13 13 13 13 13 13 13 13 13 13 12 12 12 13 13 13 14 14 15 15 15 16 16 16 17 17 18 18 19 19 19 20 20 21 21
18 17 17 17 16 16 16 17 17 17 16 16 16 16 16 16 16 16 15 15 14 13 13 14 14 14 14 14 14 14 14 14 14 14 15 14 14 14 14 14 15 15 15 15 15 15 15 15 14 14 14 15 15 15 16 16 16 17 17 18 18 18 19 19 20 20 21 21 21 22 22 22 23 24
18 18 18 17 17 17 17 17 17 17 17 17 16 16 16 16 17 17 16 16 15 14 14 14 14 14 15 15 15 14 14 14 15 15 15 15 15 15 15 16 16 16 16 17 17 17 17 16 16 16 16 17 17 17 18 18 19 19 20 20 20 21 21 22 22 23 23 23 24 24 24 25 25 26
19 19 18 18 18 17 17 17 17 17 17 17 17 16 16 16 17 17 17 17 16 15 15 15 15 15 16 16 15 15 15 15 15 15 16 16 16 16 17 17 17 17 18 18 18 18 19 19 19 19 19 19 19 19 20 20 21 21 22 22 23 23 24 24 24 25 25 26 26 26 27 27 28 28
19 19 19 18 18 18 18 17 17 18 18 18 17 17 17 17 17 18 18 17 17 16 16 16 16 16 17 16 16 16 15 15 15 16 16 17 17 17 18 18 18 19 19 20 20 20 21 21 21 21 21 21 21 22 22 23 23 23 24 24 25 26 26 26 27 27 28 28 28 29 29 30 30 30
19 19 19 18 18 18 18 18 18 18 18 18 18 18 18 17 17 18 18 18 18 17 17 17 17 17 17 17 17 17 16 16 16 16 17 18 18 18 18 19 19 20 20 21 21 21 22 22 23 23 23 23 24 24 24 25 25 26 26 27 27 28 28 29 29 30 30 30 31 31 31 32 32 32
19 18 18 18 18 18 18 18 18 18 19 19 18 19 18 18 18 19 19 19 19 18 18 18 18 18 17 17 17 17 17 17 17 17 18 18 18 19 19 19 19 20 21 21 22 22 23 23 24 24 24 25 25 26 27 27 27 28 29 29 30 30 31 31 32 32 33 34 34 34 34 34 35 35
18 18 18 18 18 18 18 18 18 18 18 18 19 19 19 19 19 19 19 20 20 20 19 19 18 18 17 17 17 17 17 18 18 18 18 18 18 18 19 19 19 20 21 21 22 23 24 24 24 25 26 26 27 28 29 29 30 30 31 32 33 33 34 34 35 36 36 37 37 38 38 38 37 37
18 18 17 17 17 17 17 18 18 19 19 18 18 18 18 19 19 19 19 20 20 20 20 20 19 18 18 18 18 18 18 18 18 18 18 18 18 18 19 20 20 21 21 22 23 24 24 25 25 26 27 28 29 30 31 31 32 33 34 35 36 36 37 38 38 39 40 40 40 40 40 40 40 40
18 17 17 17 17 17 17 17 18 19 19 19 18 18 18 18 19 19 20 20 20 21 21 20 19 19 19 19 19 19 19 19 18 18 18 19 18 19 19 20 21 22 22 23 24 24 25 26 26 26 27 28 30 31 32 33 34 35 36 37 38 39 39 40 41 42 42 43 43 43 43 42 42 42
18 17 17 17 16 16 17 17 17 18 18 18 19 18 18 18 19 20 20 20 20 21 21 20 20 20 20 19 20 20 20 20 19 19 19 19 19 19 20 20 21 22 23 23 24 24 25 26 27 27 28 29 30 31 32 34 35 36 36 37 38 39 40 41 42 42 43 43 44 44 44 44 44 44
18 18 18 17 17 17 17 17 18 18 18 18 18 18 18 18 19 20 20 21 21 21 21 21 21 22 21 21 21 21 21 20 20 20 20 20 20 20 21 22 22 23 24 24 25 26 26 27 28 28 29 30 31 32 33 34 35 36 37 38 39 40 41 41 42 43 43 44 44 44 44 44 44 44
18 18 18 17 17 17 16 17 18 18 18 18 18 18 18 18 19 19 20 21 21 21 21 21 21 22 22 22 22 21 21 20 20 21 21 21 22 22 23 24 24 25 25 26 27 27 27 28 29 30 30 32 33 33 35 35 36 37 38 39 40 41 42 42 43 44 44 44 44 45 45 45 45 45
18 18 18 17 17 16 16 17 17 17 17 18 17 17 17 18 18 18 19 19 20 20 20 20 20 20 21 21 21 20 21 21 21 22 22 22 23 23 24 24 25 25 26 26 27 28 28 29 30 31 32 33 34 35 36 37 38 39 40 41 42 43 43 44 45 45 45 46 46 46 46 46 46 46
19 18 18 18 17 17 16 17 17 16 16 16 16 16 16 16 16 17 17 18 18 18 18 19 19 18 19 19 19 20 20 21 21 21 22 22 23 23 24 24 25 26 26 27 28 29 29 30 31 32 33 34 35 36 37 38 39 40 41 42 43 44 45 45 46 46 47 47 47 47 47 47 47 46
19 19 18 18 17 17 17 17 16 16 16 15 15 15 15 16 16 16 16 15 16 16 17 17 17 17 17 18 19 19 20 21 21 22 22 23 24 24 25 26 26 27 27 28 29 30 31 31 32 33 34 35 36 37 38 39 40 41 41 42 43 44 45 46 46 47 47 47 47 47 47 47 47 47
20 19 19 19 18 17 17 17 17 16 16 16 16 16 16 16 15 15 15 15 15 15 16 16 16 16 17 17 18 19 20 21 22 23 23 24 25 25 26 27 27 28 28 29 30 31 32 32 33 35 35 36 37 38 39 39 40 40 41 42 44 45 46 47 47 47 47 48 48 47 47 47 47 47
20 19 19 18 18 18 18 17 17 17 17 17 17 17 17 16 16 16 17 16 16 16 16 16 16 17 17 18 18 19 20 21 22 24 24 25 26 26 27 27 28 29 29 30 31 32 33 34 35 36 37 38 38 38 39 39 40 41 43 44 45 46 46 47 47 47 47 47 47 47 46 46 46 45
21 20 19 19 18 18 18 17 17 17 18 18 17 17 17 17 17 18 18 18 18 18 18 18 18 18 18 19 19 20 21 22 23 24 25 26 26 27 27 28 29 29 30 31 32 33 34 35 36 37 38 39 38 39 39 41 42 43 43 44 45 45 46 46 47 47 47 46 46 46 45 45 44 44
22 21 21 20 19 18 18 18 18 18 18 18 18 19 18 18 18 19 18 18 18 18 18 19 19 19 20 20 21 22 22 23 24 25 25 26 27 27 28 28 29 30 31 32 33 34 35 36 37 38 38 39 39 40 41 41 42 42 43 44 44 45 45 46 46 46 46 46 46 45 44 43 43 42
22 22 21 21 20 19 19 19 19 18 18 18 19 19 19 19 19 19 19 18 18 19 19 20 20 21 21 22 22 23 23 24 24 25 25 26 27 27 28 29 30 31 32 33 34 35 36 37 37 38 38 39 39 40 41 41 42 42 43 44 45 45 46 46 46 46 46 46 45 45 43 42 41 41
23 22 22 21 21 20 19 19 19 19 18 18 18 19 19 18 19 19 19 19 19 20 20 21 21 21 22 22 23 23 24 24 25 25 26 26 27 28 29 30 31 32 33 34 35 35 36 37 37 37 38 38 39 40 41 42 42 43 44 45 45 46 47 47 47 47 47 46 45 44 43 41 40 39
22 23 22 21 20 19 19 19 19 18 18 19 19 18 18 18 19 19 19 20 20 20 21 21 21 21 22 22 23 23 24 25 25 26 26 27 28 29 30 31 32 33 34 34 35 35 36 36 36 37 38 39 40 41 42 42 43 44 44 45 46 46 47 47 47 47 47 46 45 43 41 40 39 38
22 23 22 21 20 20 19 19 18 18 18 19 19 19 19 19 19 20 20 20 20 21 21 21 21 21 21 22 23 23 24 25 26 27 28 28 29 30 30 31 32 32 33 34 34 34 35 36 36 37 38 40 41 42 42 43 44 45 46 46 46 47 47 47 47 47 46 45 43 41 40 39 37 35
22 22 22 21 20 20 19 19 18 18 19 19 19 19 19 20 20 21 21 21 21 21 21 21 21 21 22 22 23 24 25 26 27 27 28 28 29 29 30 30 31 31 32 33 33 34 35 36 37 38 39 40 41 42 43 44 45 46 46 47 47 47 47 47 46 45 44 43 41 40 38 36 34 32
21 21 21 20 20 20 19 19 20 20 20 20 20 20 20 21 21 22 22 22 21 21 21 21 21 22 22 23 24 25 26 26 27 27 27 28 28 29 29 29 30 31 32 32 33 34 35 37 38 39 40 41 42 43 44 45 46 46 47 47 47 46 46 45 44 44 42 41 39 38 36 33 31 30
21 22 21 21 21 21 20 20 21 21 22 22 22 22 22 22 22 22 21 21 21 20 21 21 21 22 23 24 24 25 25 26 26 27 27 27 28 28 28 29 30 31 32 33 34 35 36 37 38 39 40 41 42 43 44 45 45 46 46 46 45 44 43 42 42 41 39 37 36 34 32 30 28 27
21 21 21 21 21 21 21 21 22 22 22 23 23 23 22 22 21 21 20 20 20 20 20 21 22 22 23 24 24 24 25 25 26 26 26 26 27 28 28 29 30 31 32 33 34 35 36 37 38 39 40 41 42 43 44 44 44 44 44 43 42 42 41 40 39 37 35 33 32 30 28 26 25 24
21 21 21 21 21 21 22 22 22 22 23 23 22 22 22 21 20 19 19 19 19 19 20 21 21 22 22 23 23 24 24 24 25 25 26 26 27 28 29 29 30 32 32 33 34 35 36 38 39 39 40 40 41 42 42 42 42 42 41 41 40 39 38 37 35 33 31 29 28 27 25 24 24 24
22 22 21 20 21 21 21 21 21 22 22 21 20 20 19 18 17 17 18 18 19 19 20 20 20 21 21 22 23 23 23 24 24 25 25 26 27 28 29 30 30 31 32 33 34 35 36 37 38 38 39 39 39 39 39 39 39 39 39 38 37 36 34 33 31 29 28 27 26 25 24 24 24 25
22 23 22 21 20 20 20 20 20 20 19 19 18 17 17 17 17 17 18 18 19 19 19 19 20 20 21 21 22 22 23 23 24 25 26 27 28 29 29 30 30 31 32 33 34 35 36 36 37 38 38 38 38 37 37 37 37 37 36 35 34 32 31 29 28 27 26 25 25 24 23 22 22 23
22 22 21 20 20 19 19 18 18 18 17 17 17 17 17 17 17 18 18 18 18 18 19 19 19 20 21 21 22 22 23 24 25 26 27 28 28 29 29 30 31 32 33 33 34 35 36 36 36 36 36 37 36 35 35 35 34 34 33 31 29 28 27 26 25 24 23 22 22 21 20 18 18 19
18 18 18 18 18 17 17 17 16 16 16 16 16 16 17 17 17 17 17 18 18 18 19 19 20 20 21 21 22 23 24 24 25 26 27 28 28 29 30 30 31 32 33 33 34 35 35 36 36 35 35 35 35 34 34 33 32 30 28 27 26 25 25 24 23 21 21 20 19 18 18 18 17 17
15 15 16 16 16 15 15 15 16 16 16 16 16 16 16 17 17 17 18 18 18 19 19 19 19 20 21 21 22 23 24 25 26 26 27 28 28 29 30 31 32 33 33 34 34 35 35 35 35 35 34 34 34 33 32 31 29 27 25 24 24 23 22 21 20 19 18 18 17 17 16 15 14 14
14 14 15 15 15 15 15 15 15 16 16 16 16 16 17 17 17 17 18 18 18 18 18 19 19 20 21 22 22 23 24 25 25 26 27 28 29 30 31 32 32 33 34 34 34 35 35 35 34 34 34 33 32 31 30 28 26 25 24 23 22 21 19 18 17 16 16 15 15 14 12 11 10 9
14 14 14 15 15 15 15 16 16 16 16 16 16 17 17 17 17 17 17 17 18 18 18 19 19 20 21 22 22 23 24 24 25 26 27 28 29 30 31 31 32 32 33 33 34 34 33 33 33 33 32 31 30 28 26 24 23 22 21 20 19 18 16 15 15 14 14 13 12 10 9 8 7 7
15 15 15 15 16 16 16 17 17 17 17 17 17 17 17 17 17 17 17 17 17 18 18 19 20 21 21 22 22 23 23 24 25 26 27 28 29 30 30 31 31 31 32 32 33 32 32 31 32 31 30 28 26 24 22 21 20 20 19 17 16 15 14 13 13 12 12 11 10 9 7 6 6 5
16 16 16 16 16 17 17 17 17 17 16 16 16 16 16 16 16 16 17 17 18 18 19 19 20 20 21 21 22 23 24 25 26 27 28 28 29 29 30 30 30 31 31 31 31 31 30 30 30 28 26 24 22 20 19 19 18 18 16 15 13 12 12 11 11 11 10 10 8 7 6 5 5 5
17 16 16 16 16 16 16 16 16 16 16 16 16 16 16 16 16 16 17 17 18 18 19 19 20 20 21 22 23 24 25 26 26 27 27 28 28 29 29 30 30 30 30 30 29 29 28 28 26 25 23 21 19 17 17 17 16 15 14 12 11 10 10 10 11 11 10 9 7 6 6 5 5 5
17 16 16 15 15 15 15 15 15 15 15 15 15 15 15 15 16 16 17 17 18 18 19 20 20 21 22 23 24 24 25 26 26 26 27 27 28 28 28 28 28 28 28 28 27 26 25 24 23 21 19 18 16 15 14 14 12 11 11 11 10 10 10 10 10 10 10 9 8 7 7 6 6 6
17 16 16 16 15 15 15 15 15 15 15 15 15 15 15 16 16 17 17 18 18 19 20 20 21 22 23 23 24 24 25 25 25 26 26 26 26 26 27 27 27 26 26 26 24 23 22 21 20 18 16 15 14 13 12 11 11 10 10 10 9 9 9 9 9 9 9 8 8 7 8 7 7 6
Wind_Direction
236 237 237 238 239 240 241 241 242 243 243 243 242 242 242 243 243 242 243 243 241 238 236 237 236 234 234 235 235 236 236 235 234 234 236 239 242 247 248 245 243 243 242 244 247 248 249 251 252 254 256 259 263 268 273 278 283 289 295 300 304 307 310 312 313 314 315 316 316 316 316 317 317 317
237 238 238 239 241 241 241 242 243 243 243 243 243 244 244 243 243 243 245 247 244 239 237 237 237 235 235 235 236 237 236 235 235 236 239 241 243 247 249 246 245 245 245 246 248 251 252 254 256 257 258 261 265 269 274 278 282 287 291 295 298 302 304 305 306 308 309 309 310 310 310 311 311 311
237 239 239 240 241 242 242 242 243 243 244 244 244 244 244 244 243 242 245 248 247 241 239 238 237 235 235 235 236 237 237 236 237 238 241 243 244 247 249 249 247 247 247 249 251 253 255 256 257 258 259 261 265 269 273 277 281 284 288 291 294 296 298 300 301 302 303 304 304 305 305 305 306 306
239 240 241 242 242 241 242 242 242 242 243 244 244 244 244 243 244 243 243 246 247 244 241 239 237 235 235 236 238 239 240 240 240 241 243 244 246 248 251 251 250 249 249 251 254 256 257 258 258 258 260 262 265 269 272 276 279 282 285 287 290 292 294 296 297 298 299 300 300 301 301 302 302 303
240 241 242 242 241 241 241 241 240 240 241 243 244 244 244 243 243 242 241 242 245 245 241 238 237 235 235 237 239 240 242 243 243 244 245 247 249 251 253 253 253 252 251 252 255 257 258 259 259 260 262 264 267 269 272 275 278 280 283 285 287 289 291 293 294 295 296 297 298 298 299 299 299 300
240 242 242 242 241 240 240 240 239 239 240 241 242 243 243 242 242 241 240 240 242 243 241 238 237 236 236 238 239 241 243 245 246 247 247 249 252 254 256 257 255 254 253 254 256 258 260 260 261 262 264 266 268 270 273 275 278 280 281 284 286 287 289 290 291 292 293 294 295 295 296 296 297 297
240 241 241 241 240 239 240 240 239 238 239 240 241 243 243 243 242 241 239 239 240 241 241 241 240 239 239 239 240 242 244 246 248 250 251 252 254 256 258 259 258 257 256 257 259 261 261 262 262 264 265 267 269 271 274 276 278 279 281 282 284 286 287 288 289 291 291 292 293 294 294 295 295 295
240 240 240 240 239 238 239 240 239 238 238 240 241 242 243 242 242 241 238 238 240 241 242 243 243 242 242 242 243 243 244 247 250 252 254 255 257 258 259 259 259 259 259 260 262 263 264 264 263 264 265 267 269 271 274 276 277 278 280 281 283 284 286 287 288 289 290 291 291 292 293 293 293 294
240 241 240 240 238 238 239 240 239 238 238 240 241 241 242 242 242 241 238 237 238 240 242 244 246 246 246 246 247 245 245 249 253 256 258 258 259 260 261 260 260 260 261 262 264 265 266 266 266 266 266 267 269 272 274 275 276 277 279 281 282 284 285 286 287 288 289 290 290 291 292 292 292 292
240 240 239 239 239 239 239 239 240 239 239 241 241 241 242 242 242 240 238 236 237 239 242 245 248 249 249 249 249 248 249 252 255 259 261 261 261 261 262 262 261 261 262 263 265 266 267 268 268 269 269 270 271 272 273 275 276 277 278 280 282 283 284 285 286 287 288 289 289 290 290 291 291 291
240 239 238 238 239 240 240 240 240 241 241 242 242 242 242 242 241 240 239 238 238 239 242 245 249 250 249 249 251 252 253 255 258 261 262 262 261 261 262 263 263 262 263 264 266 267 268 269 270 271 272 272 272 273 274 275 276 277 278 280 281 282 283 284 285 286 287 288 288 289 289 290 290 291
238 238 238 238 239 240 240 240 241 241 242 242 243 243 242 242 241 240 240 240 240 240 241 245 248 248 247 248 251 253 254 256 259 262 263 263 262 261 262 263 264 264 264 266 267 268 269 270 272 273 273 274 274 274 276 277 278 279 279 280 281 282 283 284 285 286 286 287 288 288 288 289 289 289
236 236 237 237 238 239 240 240 240 241 241 242 242 242 241 241 241 241 241 242 242 242 242 244 246 246 246 248 250 252 254 256 261 263 264 264 264 263 264 265 265 265 266 268 270 270 271 272 273 274 275 276 276 276 277 278 279 280 281 281 282 283 284 284 285 286 286 287 287 287 287 287 287 288
233 234 237 238 238 240 241 241 241 241 241 241 241 242 242 242 242 241 241 242 243 243 243 244 246 246 247 249 251 254 256 259 262 263 264 265 265 266 267 269 269 268 269 271 273 273 273 274 276 276 277 278 278 278 279 280 281 281 282 283 283 284 284 285 286 286 286 286 286 286 286 286 286 286
232 234 236 239 240 242 243 244 243 243 242 242 242 243 244 244 243 241 241 242 243 245 245 245 245 245 247 251 254 257 259 261 262 264 265 267 268 269 270 272 274 274 274 276 277 277 276 277 279 279 279 280 280 280 281 282 283 283 283 284 284 285 285 286 286 287 287 287 286 286 285 285 285 285
232 234 236 239 243 244 245 245 244 243 243 243 242 243 244 245 244 243 243 245 246 247 247 246 244 244 249 254 257 259 260 261 263 264 266 267 269 271 272 273 275 276 277 278 279 278 278 278 280 281 281 281 282 283 284 284 285 285 285 286 286 286 287 287 287 287 287 288 287 287 286 286 286 285
232 234 236 240 243 245 245 246 245 243 242 242 242 242 243 245 246 246 246 247 247 248 248 247 247 248 252 256 258 259 260 262 263 265 267 269 270 272 272 273 275 277 277 278 279 279 279 279 280 281 282 282 283 284 285 286 286 286 287 287 287 288 288 288 288 288 288 288 287 286 286 286 286 284
233 235 237 240 242 244 245 245 244 243 242 242 241 241 242 243 245 246 247 248 247 247 248 248 249 251 253 255 257 259 261 262 264 266 269 271 272 273 274 276 277 277 277 278 279 279 280 281 281 282 283 284 285 286 287 287 288 288 288 288 289 289 289 288 288 288 288 288 287 287 286 286 285 284
234 236 238 239 240 242 244 244 243 242 241 240 239 238 238 239 242 244 245 246 246 246 247 248 249 250 253 255 257 260 261 263 266 268 271 273 274 276 277 278 279 279 279 280 280 281 282 282 283 284 285 286 287 287 288 289 289 290 290 290 290 290 289 289 289 288 288 288 287 287 287 286 285 285
235 237 239 240 240 241 242 241 240 238 237 236 235 234 235 238 240 241 243 244 243 244 245 247 249 251 255 257 259 262 263 265 267 270 273 275 277 278 279 280 281 282 282 282 282 282 283 284 285 286 287 287 288 289 290 290 291 291 291 291 291 291 290 290 289 289 289 288 288 287 287 286 286 285
235 237 239 240 240 241 241 240 238 236 236 236 237 237 238 240 241 242 244 244 242 243 243 246 249 253 257 260 263 265 267 268 270 273 275 278 279 281 282 282 282 283 284 284 284 284 285 286 286 287 288 288 289 290 291 291 292 292 292 292 292 292 291 291 291 290 289 289 288 287 287 286 286 285
235 236 237 239 240 240 240 239 238 238 238 239 240 240 241 242 242 244 245 245 245 246 247 249 253 258 261 264 266 269 272 273 275 276 278 280 281 282 282 282 283 284 284 284 285 285 286 287 288 289 290 290 290 291 291 292 293 294 294 294 294 293 293 292 292 291 290 290 289 288 287 287 286 286
236 236 237 238 238 237 238 238 239 240 241 241 242 242 242 242 243 244 246 246 247 250 253 255 259 263 266 269 271 274 277 279 280 280 280 282 282 282 283 283 284 284 284 285 287 287 287 288 289 290 291 291 291 292 292 294 295 295 295 295 295 295 294 294 293 292 291 291 290 289 288 287 287 286
235 236 237 238 238 237 237 238 240 242 243 243 244 244 244 244 243 244 246 246 248 251 255 259 262 265 268 270 273 276 278 280 281 282 283 283 283 284 284 284 284 285 285 287 289 289 288 289 290 291 292 292 292 293 294 295 296 296 297 296 296 296 295 295 294 294 293 292 291 290 289 288 288 287
234 235 237 238 239 238 238 239 240 242 244 245 246 246 246 246 245 245 246 247 249 253 256 259 262 264 267 269 272 275 277 279 282 283 284 284 285 285 286 286 286 287 287 289 291 291 290 290 291 292 292 293 293 294 295 296 297 297 297 297 297 297 297 296 296 295 294 293 292 292 291 289 288 287
233 234 236 238 239 239 238 239 240 242 244 246 247 248 247 246 245 246 247 249 252 254 257 259 262 265 268 270 273 276 278 281 283 285 286 287 287 288 288 288 288 289 289 291 292 291 291 292 292 293 294 294 295 296 297 298 298 298 298 298 298 298 298 297 297 296 295 294 293 292 291 289 288 286
233 234 236 237 236 237 238 239 240 243 245 247 248 248 247 246 246 247 250 252 254 256 259 261 263 267 269 272 275 278 280 282 284 286 288 289 290 291 291 290 290 290 291 292 293 293 293 293 294 295 296 296 297 297 298 298 298 298 299 299 299 299 298 298 297 296 295 294 293 292 290 288 287 285
236 235 235 235 235 236 238 240 241 244 247 249 249 249 247 247 248 251 253 255 256 258 260 262 265 269 272 275 278 280 282 284 286 288 290 291 292 293 293 293 293 292 292 293 294 294 294 294 294 295 296 297 297 298 298 298 299 299 299 299 299 299 299 298 297 296 295 294 292 291 289 288 286 284
237 235 232 233 236 238 239 241 243 247 250 251 251 250 250 250 252 254 256 257 259 260 263 265 268 271 274 277 279 282 284 287 288 290 291 292 294 295 295 294 295 295 295 295 295 295 295 295 295 295 296 297 298 298 299 299 299 300 300 300 300 300 299 299 298 297 295 294 291 289 288 287 285 283
234 232 231 233 237 240 242 244 246 249 253 254 253 252 253 253 255 256 257 258 260 262 265 267 270 273 275 277 280 283 285 288 289 290 291 292 294 295 295 295 295 297 297 297 296 296 296 296 296 297 297 298 299 299 300 300 300 300 300 301 301 301 300 299 298 297 295 293 291 289 287 286 284 282
232 232 233 235 238 242 245 248 250 252 254 254 253 253 254 254 255 256 257 258 261 264 266 268 270 272 274 277 280 283 286 288 290 291 292 293 294 295 295 296 297 298 299 299 299 299 299 298 298 298 299 299 300 300 301 301 301 302 302 302 302 302 301 300 299 297 295 294 293 290 288 286 282 280
233 235 237 239 242 246 249 252 253 253 253 251 250 251 252 252 253 254 256 258 261 264 265 267 270 273 276 280 283 285 287 289 290 291 292 294 295 296 297 298 299 300 300 300 301 301 301 301 301 300 300 300 301 301 302 302 302 303 303 303 303 303 302 300 299 297 296 295 294 290 287 284 280 277
236 238 240 243 246 250 252 253 252 250 247 246 245 246 248 249 251 254 257 259 262 265 267 270 273 276 279 282 284 286 287 289 290 292 294 295 297 298 299 300 301 302 302 302 302 302 302 303 303 302 302 302 303 303 304 304 304 305 305 305 305 304 302 301 299 298 297 296 293 289 285 281 278 276
239 240 243 247 250 251 250 247 245 243 242 241 242 244 246 249 253 256 259 262 265 267 270 272 275 277 280 283 285 286 288 290 292 294 295 297 298 300 301 302 302 302 302 303 303 303 304 304 304 304 304 304 304 305 306 307 307 307 306 306 305 305 304 302 301 299 297 296 293 289 286 282 279 278
243 245 248 249 248 244 241 239 238 238 238 239 241 244 247 251 254 257 260 263 265 267 270 272 275 278 281 284 287 288 290 292 293 295 296 298 299 300 301 301 302 302 303 303 304 305 305 306 306 306 307 307 307 307 309 310 310 309 308 307 307 306 305 304 303 301 298 296 293 289 287 284 281 280
244 245 246 243 240 238 237 237 237 236 237 239 242 245 248 253 257 260 262 264 266 268 271 274 276 279 283 287 288 290 292 293 295 297 298 299 299 300 300 301 302 303 304 305 305 306 306 307 308 309 309 310 310 310 310 312 311 310 310 309 309 309 309 308 307 304 301 299 296 292 288 285 282 281
241 241 240 238 237 237 236 235 235 236 239 242 244 247 251 254 257 260 262 265 268 271 274 276 279 282 285 288 289 291 293 295 296 298 298 299 299 300 302 303 304 304 305 305 306 307 307 308 310 310 311 311 312 311 310 311 311 312 312 312 312 311 311 309 309 307 304 301 298 293 289 286 283 282
238 237 237 237 237 234 232 232 236 239 242 244 246 249 252 255 258 262 265 269 272 274 276 279 282 285 287 289 291 293 295 296 297 298 298 299 301 302 304 305 305 306 306 306 307 308 308 309 311 312 312 312 312 311 310 310 310 312 313 314 313 312 311 310 309 308 307 305 302 297 292 289 285 282
242 241 239 237 234 233 234 238 242 244 245 247 249 252 255 259 263 266 269 271 273 276 279 282 285 288 290 292 294 295 296 297 298 299 300 301 303 305 306 306 307 307 307 307 308 308 309 310 311 313 313 312 311 310 309 309 310 311 313 313 313 312 312 313 313 313 314 313 311 307 301 293 287 283
247 244 241 239 238 240 242 245 247 249 251 252 254 257 260 263 265 268 270 273 276 279 282 286 288 290 292 293 294 295 296 298 299 301 303 304 305 306 307 308 309 309 309 310 310 310 311 312 312 313 312 311 311 310 309 308 309 311 312 314 315 315 316 317 318 319 320 320 319 316 312 304 296 293
248 245 243 243 244 246 248 249 251 253 254 256 257 259 262 264 267 269 272 276 279 283 285 288 289 291 292 293 294 295 297 300 302 303 305 306 307 308 309 310 311 312 312 313 313 313 313 313 313 313 312 312 311 311 310 309 310 311 312 314 316 319 321 322 322 322 323 323 322 322 322 319 311 304
249 247 246 246 247 248 249 250 252 254 256 258 259 261 264 266 269 272 276 279 282 284 286 288 289 290 292 293 295 297 300 302 304 305 306 308 309 310 311 312 313 314 315 315 315 314 314 314 314 313 313 313 313 312 311 311 312 314 315 314 314 317 322 324 325 326 327 326 323 321 321 319 315 309
249 248 248 249 249 250 251 253 254 256 258 259 261 263 266 269 272 274 277 279 282 284 286 288 289 291 293 295 297 299 301 304 306 307 308 309 310 311 312 313 314 315 315 316 316 315 315 315 315 315 315 315 314 312 312 312 314 317 318 316 312 314 320 324 325 327 330 330 327 323 317 312 309 308
247 247 248 249 250 251 253 255 256 257 258 259 260 263 266 269 271 274 276 279 282 284 287 289 291 293 295 297 299 301 303 306 307 309 310 311 311 312 313 315 315 315 316 317 317 317 317 317 317 317 317 318 315 313 313 314 316 319 323 324 319 316 317 319 320 323 327 329 326 322 317 311 304 301
247 247 248 249 250 251 251 253 254 255 256 258 260 263 267 269 272 275 278 281 284 287 289 291 294 295 297 299 301 303 305 306 307 309 310 312 313 314 315 316 317 317 317 318 319 319 319 320 319 318 317 317 314 313 315 318 320 319 322 325 323 319 316 317 319 320 324 326 322 318 316 313 306 301